Year,Month,Day,Hour,Minute,Value (Times are PST for temperature in C)
2016,08,18,00,00,18.80
2016,08,18,00,01,18.80
2016,08,18,00,02,18.80
2016,08,18,00,03,18.80
2016,08,18,00,04,18.80
2016,08,18,00,05,18.70
2016,08,18,00,06,18.70
2016,08,18,00,07,18.70
2016,08,18,00,08,18.70
2016,08,18,00,09,18.70
2016,08,18,00,10,18.70
2016,08,18,00,11,18.60
2016,08,18,00,12,18.60
2016,08,18,00,13,18.60
2016,08,18,00,14,18.60
2016,08,18,00,15,18.60
2016,08,18,00,16,18.60
2016,08,18,00,17,18.50
2016,08,18,00,18,18.50
2016,08,18,00,19,18.50
2016,08,18,00,20,18.50
2016,08,18,00,21,18.50
2016,08,18,00,22,18.50
2016,08,18,00,23,18.40
2016,08,18,00,24,18.40
2016,08,18,00,25,18.40
2016,08,18,00,26,18.40
2016,08,18,00,27,18.40
2016,08,18,00,28,18.40
2016,08,18,00,29,18.40
2016,08,18,00,30,18.40
2016,08,18,00,31,18.40
2016,08,18,00,32,18.40
2016,08,18,00,33,18.40
2016,08,18,00,34,18.40
2016,08,18,00,35,18.40
2016,08,18,00,36,18.30
2016,08,18,00,37,18.30
2016,08,18,00,38,18.30
2016,08,18,00,39,18.30
2016,08,18,00,40,18.30
2016,08,18,00,41,18.30
2016,08,18,00,42,18.30
2016,08,18,00,43,18.30
2016,08,18,00,44,18.30
2016,08,18,00,45,18.30
2016,08,18,00,46,18.30
2016,08,18,00,47,18.20
2016,08,18,00,48,18.20
2016,08,18,00,49,18.20
2016,08,18,00,50,18.20
2016,08,18,00,51,18.20
2016,08,18,00,52,18.20
2016,08,18,00,53,18.20
2016,08,18,00,54,18.20
2016,08,18,00,55,18.20
2016,08,18,00,56,18.20
2016,08,18,00,57,18.10
2016,08,18,00,58,18.10
2016,08,18,00,59,18.10
2016,08,18,01,00,18.10
2016,08,18,01,01,18.10
2016,08,18,01,02,18.10
2016,08,18,01,03,18.10
2016,08,18,01,04,18.10
2016,08,18,01,05,18.10
2016,08,18,01,06,18.10
2016,08,18,01,07,18.10
2016,08,18,01,08,18.10
2016,08,18,01,09,18.00
2016,08,18,01,10,18.00
2016,08,18,01,11,18.00
2016,08,18,01,12,18.00
2016,08,18,01,13,18.00
2016,08,18,01,14,18.00
2016,08,18,01,15,17.90
2016,08,18,01,16,17.90
2016,08,18,01,17,17.90
2016,08,18,01,18,17.90
2016,08,18,01,19,17.90
2016,08,18,01,20,17.90
2016,08,18,01,21,17.90
2016,08,18,01,22,17.90
2016,08,18,01,23,17.90
2016,08,18,01,24,17.90
2016,08,18,01,25,17.90
2016,08,18,01,26,17.90
2016,08,18,01,27,17.80
2016,08,18,01,28,17.80
2016,08,18,01,29,17.80
2016,08,18,01,30,17.80
2016,08,18,01,31,17.80
2016,08,18,01,32,17.80
2016,08,18,01,33,17.80
2016,08,18,01,34,17.80
2016,08,18,01,35,17.80
2016,08,18,01,36,17.80
2016,08,18,01,37,17.70
2016,08,18,01,38,17.70
2016,08,18,01,39,17.70
2016,08,18,01,40,17.70
2016,08,18,01,41,17.70
2016,08,18,01,42,17.70
2016,08,18,01,43,17.70
2016,08,18,01,44,17.70
2016,08,18,01,45,17.60
2016,08,18,01,46,17.60
2016,08,18,01,47,17.60
2016,08,18,01,48,17.60
2016,08,18,01,49,17.60
2016,08,18,01,50,17.60
2016,08,18,01,51,17.60
2016,08,18,01,52,17.60
2016,08,18,01,53,17.60
2016,08,18,01,54,17.60
2016,08,18,01,55,17.60
2016,08,18,01,56,17.60
2016,08,18,01,57,17.60
2016,08,18,01,58,17.50
2016,08,18,01,59,17.50
2016,08,18,02,00,17.50
2016,08,18,02,01,17.50
2016,08,18,02,02,17.50
2016,08,18,02,03,17.50
2016,08,18,02,04,17.50
2016,08,18,02,05,17.50
2016,08,18,02,06,17.50
2016,08,18,02,07,17.50
2016,08,18,02,08,17.50
2016,08,18,02,09,17.50
2016,08,18,02,10,17.50
2016,08,18,02,11,17.50
2016,08,18,02,12,17.50
2016,08,18,02,13,17.50
2016,08,18,02,14,17.50
2016,08,18,02,15,17.50
2016,08,18,02,16,17.50
2016,08,18,02,17,17.50
2016,08,18,02,18,17.50
2016,08,18,02,19,17.50
2016,08,18,02,20,17.50
2016,08,18,02,21,17.50
2016,08,18,02,22,17.50
2016,08,18,02,23,17.50
2016,08,18,02,24,17.50
2016,08,18,02,25,17.50
2016,08,18,02,26,17.50
2016,08,18,02,27,17.50
2016,08,18,02,28,17.50
2016,08,18,02,29,17.50
2016,08,18,02,30,17.50
2016,08,18,02,31,17.50
2016,08,18,02,32,17.50
2016,08,18,02,33,17.50
2016,08,18,02,34,17.50
2016,08,18,02,35,17.40
2016,08,18,02,36,17.40
2016,08,18,02,37,17.40
2016,08,18,02,38,17.40
2016,08,18,02,39,17.40
2016,08,18,02,40,17.40
2016,08,18,02,41,17.40
2016,08,18,02,42,17.40
2016,08,18,02,43,17.40
2016,08,18,02,44,17.40
2016,08,18,02,45,17.40
2016,08,18,02,46,17.30
2016,08,18,02,47,17.30
2016,08,18,02,48,17.30
2016,08,18,02,49,17.30
2016,08,18,02,50,17.30
2016,08,18,02,51,17.30
2016,08,18,02,52,17.30
2016,08,18,02,53,17.20
2016,08,18,02,54,17.20
2016,08,18,02,55,17.20
2016,08,18,02,56,17.20
2016,08,18,02,57,17.20
2016,08,18,02,58,17.20
2016,08,18,02,59,17.20
2016,08,18,03,00,17.20
2016,08,18,03,01,17.20
2016,08,18,03,02,17.20
2016,08,18,03,03,17.10
2016,08,18,03,04,17.10
2016,08,18,03,05,17.10
2016,08,18,03,06,17.10
2016,08,18,03,07,17.10
2016,08,18,03,08,17.10
2016,08,18,03,09,17.10
2016,08,18,03,10,17.10
2016,08,18,03,11,17.00
2016,08,18,03,12,17.00
2016,08,18,03,13,17.00
2016,08,18,03,14,17.00
2016,08,18,03,15,16.90
2016,08,18,03,16,16.90
2016,08,18,03,17,16.90
2016,08,18,03,18,16.90
2016,08,18,03,19,16.80
2016,08,18,03,20,16.80
2016,08,18,03,21,16.80
2016,08,18,03,22,16.80
2016,08,18,03,23,16.80
2016,08,18,03,24,16.80
2016,08,18,03,25,16.80
2016,08,18,03,26,16.80
2016,08,18,03,27,16.70
2016,08,18,03,28,16.70
2016,08,18,03,29,16.70
2016,08,18,03,30,16.70
2016,08,18,03,31,16.70
2016,08,18,03,32,16.70
2016,08,18,03,33,16.70
2016,08,18,03,34,16.70
2016,08,18,03,35,16.70
2016,08,18,03,36,16.60
2016,08,18,03,37,16.60
2016,08,18,03,38,16.60
2016,08,18,03,39,16.60
2016,08,18,03,40,16.60
2016,08,18,03,41,16.50
2016,08,18,03,42,16.50
2016,08,18,03,43,16.50
2016,08,18,03,44,16.50
2016,08,18,03,45,16.40
2016,08,18,03,46,16.40
2016,08,18,03,47,16.40
2016,08,18,03,48,16.40
2016,08,18,03,49,16.40
2016,08,18,03,50,16.40
2016,08,18,03,51,16.30
2016,08,18,03,52,16.30
2016,08,18,03,53,16.30
2016,08,18,03,54,16.30
2016,08,18,03,55,16.30
2016,08,18,03,56,16.30
2016,08,18,03,57,16.30
2016,08,18,03,58,16.30
2016,08,18,03,59,16.30
2016,08,18,04,00,16.30
2016,08,18,04,01,16.30
2016,08,18,04,02,16.30
2016,08,18,04,03,16.20
2016,08,18,04,04,16.20
2016,08,18,04,05,16.20
2016,08,18,04,06,16.20
2016,08,18,04,07,16.20
2016,08,18,04,08,16.20
2016,08,18,04,09,16.20
2016,08,18,04,10,16.20
2016,08,18,04,11,16.20
2016,08,18,04,12,16.20
2016,08,18,04,13,16.20
2016,08,18,04,14,16.20
2016,08,18,04,15,16.20
2016,08,18,04,16,16.20
2016,08,18,04,17,16.10
2016,08,18,04,18,16.10
2016,08,18,04,19,16.10
2016,08,18,04,20,16.10
2016,08,18,04,21,16.10
2016,08,18,04,22,16.10
2016,08,18,04,23,16.10
2016,08,18,04,24,16.10
2016,08,18,04,25,16.10
2016,08,18,04,26,16.10
2016,08,18,04,27,16.10
2016,08,18,04,28,16.10
2016,08,18,04,29,16.10
2016,08,18,04,30,16.10
2016,08,18,04,31,16.10
2016,08,18,04,32,16.10
2016,08,18,04,33,16.10
2016,08,18,04,34,16.00
2016,08,18,04,35,16.00
2016,08,18,04,36,16.00
2016,08,18,04,37,16.00
2016,08,18,04,38,16.00
2016,08,18,04,39,16.00
2016,08,18,04,40,15.90
2016,08,18,04,41,15.90
2016,08,18,04,42,15.90
2016,08,18,04,43,15.90
2016,08,18,04,44,15.90
2016,08,18,04,45,15.90
2016,08,18,04,46,15.90
2016,08,18,04,47,15.90
2016,08,18,04,48,15.90
2016,08,18,04,49,15.90
2016,08,18,04,50,15.90
2016,08,18,04,51,15.90
2016,08,18,04,52,15.80
2016,08,18,04,53,15.80
2016,08,18,04,54,15.80
2016,08,18,04,55,15.80
2016,08,18,04,56,15.80
2016,08,18,04,57,15.80
2016,08,18,04,58,15.80
2016,08,18,04,59,15.80
2016,08,18,05,00,15.80
2016,08,18,05,01,15.80
2016,08,18,05,02,15.80
2016,08,18,05,03,15.80
2016,08,18,05,04,15.80
2016,08,18,05,05,15.80
2016,08,18,05,06,15.80
2016,08,18,05,07,15.80
2016,08,18,05,08,15.80
2016,08,18,05,09,15.80
2016,08,18,05,10,15.80
2016,08,18,05,11,15.80
2016,08,18,05,12,15.80
2016,08,18,05,13,15.80
2016,08,18,05,14,15.80
2016,08,18,05,15,15.80
2016,08,18,05,16,15.80
2016,08,18,05,17,15.70
2016,08,18,05,18,15.70
2016,08,18,05,19,15.70
2016,08,18,05,20,15.70
2016,08,18,05,21,15.70
2016,08,18,05,22,15.70
2016,08,18,05,23,15.70
2016,08,18,05,24,15.60
2016,08,18,05,25,15.60
2016,08,18,05,26,15.60
2016,08,18,05,27,15.60
2016,08,18,05,28,15.60
2016,08,18,05,29,15.60
2016,08,18,05,30,15.60
2016,08,18,05,31,15.60
2016,08,18,05,32,15.60
2016,08,18,05,33,15.60
2016,08,18,05,34,15.60
2016,08,18,05,35,15.60
2016,08,18,05,36,15.60
2016,08,18,05,37,15.60
2016,08,18,05,38,15.60
2016,08,18,05,39,15.60
2016,08,18,05,40,15.60
2016,08,18,05,41,15.60
2016,08,18,05,42,15.50
2016,08,18,05,43,15.50
2016,08,18,05,44,15.50
2016,08,18,05,45,15.50
2016,08,18,05,46,15.50
2016,08,18,05,47,15.50
2016,08,18,05,48,15.50
2016,08,18,05,49,15.50
2016,08,18,05,50,15.50
2016,08,18,05,51,15.40
2016,08,18,05,52,15.40
2016,08,18,05,53,15.40
2016,08,18,05,54,15.40
2016,08,18,05,55,15.40
2016,08,18,05,56,15.40
2016,08,18,05,57,15.40
2016,08,18,05,58,15.30
2016,08,18,05,59,15.30
2016,08,18,06,00,15.30
2016,08,18,06,01,15.30
2016,08,18,06,02,15.30
2016,08,18,06,03,15.30
2016,08,18,06,04,15.30
2016,08,18,06,05,15.20
2016,08,18,06,06,15.20
2016,08,18,06,07,15.20
2016,08,18,06,08,15.20
2016,08,18,06,09,15.20
2016,08,18,06,10,15.10
2016,08,18,06,11,15.10
2016,08,18,06,12,15.10
2016,08,18,06,13,15.10
2016,08,18,06,14,15.10
2016,08,18,06,15,15.10
2016,08,18,06,16,15.10
2016,08,18,06,17,15.00
2016,08,18,06,18,15.00
2016,08,18,06,19,15.00
2016,08,18,06,20,15.00
2016,08,18,06,21,14.90
2016,08,18,06,22,14.90
2016,08,18,06,23,14.90
2016,08,18,06,24,14.90
2016,08,18,06,25,14.90
2016,08,18,06,26,14.90
2016,08,18,06,27,14.80
2016,08,18,06,28,14.80
2016,08,18,06,29,14.80
2016,08,18,06,30,14.80
2016,08,18,06,31,14.80
2016,08,18,06,32,14.80
2016,08,18,06,33,14.80
2016,08,18,06,34,14.80
2016,08,18,06,35,14.80
2016,08,18,06,36,14.80
2016,08,18,06,37,14.80
2016,08,18,06,38,14.80
2016,08,18,06,39,14.80
2016,08,18,06,40,14.80
2016,08,18,06,41,14.80
2016,08,18,06,42,14.80
2016,08,18,06,43,14.80
2016,08,18,06,44,14.80
2016,08,18,06,45,14.80
2016,08,18,06,46,14.80
2016,08,18,06,47,14.80
2016,08,18,06,48,14.80
2016,08,18,06,49,14.80
2016,08,18,06,50,14.80
2016,08,18,06,51,14.80
2016,08,18,06,52,14.80
2016,08,18,06,53,14.80
2016,08,18,06,54,14.80
2016,08,18,06,55,14.80
2016,08,18,06,56,14.80
2016,08,18,06,57,14.80
2016,08,18,06,58,14.80
2016,08,18,06,59,14.80
2016,08,18,07,00,14.80
2016,08,18,07,01,14.80
2016,08,18,07,02,14.80
2016,08,18,07,03,14.80
2016,08,18,07,04,14.80
2016,08,18,07,05,14.80
2016,08,18,07,06,14.80
2016,08,18,07,07,14.90
2016,08,18,07,08,14.90
2016,08,18,07,09,15.00
2016,08,18,07,10,15.00
2016,08,18,07,11,15.00
2016,08,18,07,12,15.10
2016,08,18,07,13,15.10
2016,08,18,07,14,15.10
2016,08,18,07,15,15.10
2016,08,18,07,16,15.20
2016,08,18,07,17,15.20
2016,08,18,07,18,15.20
2016,08,18,07,19,15.30
2016,08,18,07,20,15.30
2016,08,18,07,21,15.30
2016,08,18,07,22,15.40
2016,08,18,07,23,15.40
2016,08,18,07,24,15.50
2016,08,18,07,25,15.50
2016,08,18,07,26,15.60
2016,08,18,07,27,15.60
2016,08,18,07,28,15.60
2016,08,18,07,29,15.60
2016,08,18,07,30,15.70
2016,08,18,07,31,15.70
2016,08,18,07,32,15.70
2016,08,18,07,33,15.70
2016,08,18,07,34,15.70
2016,08,18,07,35,15.70
2016,08,18,07,36,15.70
2016,08,18,07,37,15.80
2016,08,18,07,38,15.80
2016,08,18,07,39,15.80
2016,08,18,07,40,15.80
2016,08,18,07,41,15.80
2016,08,18,07,42,15.90
2016,08,18,07,43,15.90
2016,08,18,07,44,16.00
2016,08,18,07,45,16.00
2016,08,18,07,46,16.10
2016,08,18,07,47,16.10
2016,08,18,07,48,16.10
2016,08,18,07,49,16.10
2016,08,18,07,50,16.20
2016,08,18,07,51,16.20
2016,08,18,07,52,16.20
2016,08,18,07,53,16.30
2016,08,18,07,54,16.30
2016,08,18,07,55,16.30
2016,08,18,07,56,16.30
2016,08,18,07,57,16.30
2016,08,18,07,58,16.40
2016,08,18,07,59,16.40
2016,08,18,08,00,16.40
2016,08,18,08,01,16.40
2016,08,18,08,02,16.50
2016,08,18,08,03,16.50
2016,08,18,08,04,16.60
2016,08,18,08,05,16.60
2016,08,18,08,06,16.60
2016,08,18,08,07,16.60
2016,08,18,08,08,16.70
2016,08,18,08,09,16.70
2016,08,18,08,10,16.70
2016,08,18,08,11,16.70
2016,08,18,08,12,16.70
2016,08,18,08,13,16.80
2016,08,18,08,14,16.80
2016,08,18,08,15,16.80
2016,08,18,08,16,16.80
2016,08,18,08,17,16.80
2016,08,18,08,18,16.80
2016,08,18,08,19,16.90
2016,08,18,08,20,16.90
2016,08,18,08,21,16.90
2016,08,18,08,22,16.90
2016,08,18,08,23,17.00
2016,08,18,08,24,17.00
2016,08,18,08,25,17.10
2016,08,18,08,26,17.10
2016,08,18,08,27,17.10
2016,08,18,08,28,17.10
2016,08,18,08,29,17.10
2016,08,18,08,30,17.10
2016,08,18,08,31,17.10
2016,08,18,08,32,17.10
2016,08,18,08,33,17.10
2016,08,18,08,34,17.20
2016,08,18,08,35,17.20
2016,08,18,08,36,17.20
2016,08,18,08,37,17.20
2016,08,18,08,38,17.20
2016,08,18,08,39,17.20
2016,08,18,08,40,17.20
2016,08,18,08,41,17.30
2016,08,18,08,42,17.30
2016,08,18,08,43,17.30
2016,08,18,08,44,17.30
2016,08,18,08,45,17.40
2016,08,18,08,46,17.40
2016,08,18,08,47,17.50
2016,08,18,08,48,17.50
2016,08,18,08,49,17.60
2016,08,18,08,50,17.70
2016,08,18,08,51,17.70
2016,08,18,08,52,17.70
2016,08,18,08,53,17.70
2016,08,18,08,54,17.80
2016,08,18,08,55,17.80
2016,08,18,08,56,17.90
2016,08,18,08,57,17.90
2016,08,18,08,58,17.90
2016,08,18,08,59,18.00
2016,08,18,09,00,18.00
2016,08,18,09,01,18.00
2016,08,18,09,02,18.10
2016,08,18,09,03,18.10
2016,08,18,09,04,18.20
2016,08,18,09,05,18.20
2016,08,18,09,06,18.20
2016,08,18,09,07,18.20
2016,08,18,09,08,18.20
2016,08,18,09,09,18.20
2016,08,18,09,10,18.20
2016,08,18,09,11,18.30
2016,08,18,09,12,18.30
2016,08,18,09,13,18.30
2016,08,18,09,14,18.20
2016,08,18,09,15,18.20
2016,08,18,09,16,18.30
2016,08,18,09,17,18.30
2016,08,18,09,18,18.30
2016,08,18,09,19,18.30
2016,08,18,09,20,18.30
2016,08,18,09,21,18.30
2016,08,18,09,22,18.40
2016,08,18,09,23,18.40
2016,08,18,09,24,18.40
2016,08,18,09,25,18.40
2016,08,18,09,26,18.40
2016,08,18,09,27,18.40
2016,08,18,09,28,18.40
2016,08,18,09,29,18.50
2016,08,18,09,30,18.50
2016,08,18,09,31,18.50
2016,08,18,09,32,18.60
2016,08,18,09,33,18.60
2016,08,18,09,34,18.70
2016,08,18,09,35,18.70
2016,08,18,09,36,18.70
2016,08,18,09,37,18.70
2016,08,18,09,38,18.70
2016,08,18,09,39,18.70
2016,08,18,09,40,18.70
2016,08,18,09,41,18.70
2016,08,18,09,42,18.70
2016,08,18,09,43,18.80
2016,08,18,09,44,18.80
2016,08,18,09,45,18.80
2016,08,18,09,46,18.90
2016,08,18,09,47,18.90
2016,08,18,09,48,18.90
2016,08,18,09,49,18.90
2016,08,18,09,50,18.90
2016,08,18,09,51,19.00
2016,08,18,09,52,19.00
2016,08,18,09,53,19.10
2016,08,18,09,54,19.10
2016,08,18,09,55,19.20
2016,08,18,09,56,19.20
2016,08,18,09,57,19.20
2016,08,18,09,58,19.30
2016,08,18,09,59,19.40
2016,08,18,10,00,19.40
2016,08,18,10,01,19.50
2016,08,18,10,02,19.50
2016,08,18,10,03,19.60
2016,08,18,10,04,19.60
2016,08,18,10,05,19.70
2016,08,18,10,06,19.80
2016,08,18,10,07,19.80
2016,08,18,10,08,19.80
2016,08,18,10,09,19.90
2016,08,18,10,10,20.00
2016,08,18,10,11,20.00
2016,08,18,10,12,20.10
2016,08,18,10,13,20.10
2016,08,18,10,14,20.20
2016,08,18,10,15,20.30
2016,08,18,10,16,20.30
2016,08,18,10,17,20.40
2016,08,18,10,18,20.50
2016,08,18,10,19,20.60
2016,08,18,10,20,20.70
2016,08,18,10,21,20.80
2016,08,18,10,22,20.90
2016,08,18,10,23,20.90
2016,08,18,10,24,21.00
2016,08,18,10,25,21.00
2016,08,18,10,26,21.00
2016,08,18,10,27,21.10
2016,08,18,10,28,21.10
2016,08,18,10,29,21.10
2016,08,18,10,30,21.10
2016,08,18,10,31,21.10
2016,08,18,10,32,21.20
2016,08,18,10,33,21.20
2016,08,18,10,34,21.20
2016,08,18,10,35,21.20
2016,08,18,10,36,21.20
2016,08,18,10,37,21.30
2016,08,18,10,38,21.30
2016,08,18,10,39,21.40
2016,08,18,10,40,21.50
2016,08,18,10,41,21.50
2016,08,18,10,42,21.60
2016,08,18,10,43,21.60
2016,08,18,10,44,21.60
2016,08,18,10,45,21.60
2016,08,18,10,46,21.60
2016,08,18,10,47,21.60
2016,08,18,10,48,21.60
2016,08,18,10,49,21.60
2016,08,18,10,50,21.60
2016,08,18,10,51,21.60
2016,08,18,10,52,21.60
2016,08,18,10,53,21.60
2016,08,18,10,54,21.70
2016,08,18,10,55,21.70
2016,08,18,10,56,21.80
2016,08,18,10,57,21.80
2016,08,18,10,58,21.90
2016,08,18,10,59,21.90
2016,08,18,11,00,21.90
2016,08,18,11,01,22.00
2016,08,18,11,02,22.10
2016,08,18,11,03,22.10
2016,08,18,11,04,22.20
2016,08,18,11,05,22.30
2016,08,18,11,06,22.30
2016,08,18,11,07,22.40
2016,08,18,11,08,22.40
2016,08,18,11,09,22.50
2016,08,18,11,10,22.50
2016,08,18,11,11,22.50
2016,08,18,11,12,22.50
2016,08,18,11,13,22.50
2016,08,18,11,14,22.60
2016,08,18,11,15,22.60
2016,08,18,11,16,22.70
2016,08,18,11,17,22.70
2016,08,18,11,18,22.80
2016,08,18,11,19,22.90
2016,08,18,11,20,23.00
2016,08,18,11,21,23.00
2016,08,18,11,22,23.10
2016,08,18,11,23,23.20
2016,08,18,11,24,23.30
2016,08,18,11,25,23.30
2016,08,18,11,26,23.30
2016,08,18,11,27,23.30
2016,08,18,11,28,23.30
2016,08,18,11,29,23.30
2016,08,18,11,30,23.30
2016,08,18,11,31,23.30
2016,08,18,11,32,23.30
2016,08,18,11,33,23.30
2016,08,18,11,34,23.30
2016,08,18,11,35,23.30
2016,08,18,11,36,23.40
2016,08,18,11,37,23.30
2016,08,18,11,38,23.30
2016,08,18,11,39,23.30
2016,08,18,11,40,23.30
2016,08,18,11,41,23.30
2016,08,18,11,42,23.40
2016,08,18,11,43,23.40
2016,08,18,11,44,23.60
2016,08,18,11,45,23.70
2016,08,18,11,46,23.70
2016,08,18,11,47,23.80
2016,08,18,11,48,23.90
2016,08,18,11,49,23.90
2016,08,18,11,50,24.00
2016,08,18,11,51,24.00
2016,08,18,11,52,23.90
2016,08,18,11,53,23.90
2016,08,18,11,54,23.80
2016,08,18,11,55,23.90
2016,08,18,11,56,23.90
2016,08,18,11,57,23.90
2016,08,18,11,58,23.90
2016,08,18,11,59,23.80
2016,08,18,12,00,23.80
2016,08,18,12,01,23.80
2016,08,18,12,02,23.80
2016,08,18,12,03,23.80
2016,08,18,12,04,23.90
2016,08,18,12,05,24.00
2016,08,18,12,06,24.00
2016,08,18,12,07,24.00
2016,08,18,12,08,24.10
2016,08,18,12,09,24.10
2016,08,18,12,10,24.20
2016,08,18,12,11,24.30
2016,08,18,12,12,24.40
2016,08,18,12,13,24.40
2016,08,18,12,14,24.50
2016,08,18,12,15,24.50
2016,08,18,12,16,24.60
2016,08,18,12,17,24.60
2016,08,18,12,18,24.60
2016,08,18,12,19,24.70
2016,08,18,12,20,24.80
2016,08,18,12,21,24.80
2016,08,18,12,22,24.90
2016,08,18,12,23,24.90
2016,08,18,12,24,24.90
2016,08,18,12,25,24.90
2016,08,18,12,26,25.00
2016,08,18,12,27,25.10
2016,08,18,12,28,25.10
2016,08,18,12,29,25.20
2016,08,18,12,30,25.20
2016,08,18,12,31,25.20
2016,08,18,12,32,25.20
2016,08,18,12,33,25.30
2016,08,18,12,34,25.30
2016,08,18,12,35,25.40
2016,08,18,12,36,25.40
2016,08,18,12,37,25.40
2016,08,18,12,38,25.40
2016,08,18,12,39,25.50
2016,08,18,12,40,25.60
2016,08,18,12,41,25.60
2016,08,18,12,42,25.60
2016,08,18,12,43,25.60
2016,08,18,12,44,25.50
2016,08,18,12,45,25.50
2016,08,18,12,46,25.40
2016,08,18,12,47,25.40
2016,08,18,12,48,25.30
2016,08,18,12,49,25.30
2016,08,18,12,50,25.20
2016,08,18,12,51,25.20
2016,08,18,12,52,25.20
2016,08,18,12,53,25.20
2016,08,18,12,54,25.20
2016,08,18,12,55,25.20
2016,08,18,12,56,25.20
2016,08,18,12,57,25.20
2016,08,18,12,58,25.20
2016,08,18,12,59,25.30
2016,08,18,13,00,25.30
2016,08,18,13,01,25.50
2016,08,18,13,02,25.50
2016,08,18,13,03,25.60
2016,08,18,13,04,25.60
2016,08,18,13,05,25.60
2016,08,18,13,06,25.70
2016,08,18,13,07,25.70
2016,08,18,13,08,25.70
2016,08,18,13,09,25.70
2016,08,18,13,10,25.60
2016,08,18,13,11,25.60
2016,08,18,13,12,25.60
2016,08,18,13,13,25.50
2016,08,18,13,14,25.40
2016,08,18,13,15,25.40
2016,08,18,13,16,25.40
2016,08,18,13,17,25.40
2016,08,18,13,18,25.40
2016,08,18,13,19,25.40
2016,08,18,13,20,25.40
2016,08,18,13,21,25.40
2016,08,18,13,22,25.50
2016,08,18,13,23,25.60
2016,08,18,13,24,25.60
2016,08,18,13,25,25.70
2016,08,18,13,26,25.70
2016,08,18,13,27,25.80
2016,08,18,13,28,25.80
2016,08,18,13,29,25.80
2016,08,18,13,30,25.70
2016,08,18,13,31,25.70
2016,08,18,13,32,25.80
2016,08,18,13,33,25.70
2016,08,18,13,34,25.70
2016,08,18,13,35,25.80
2016,08,18,13,36,25.80
2016,08,18,13,37,25.90
2016,08,18,13,38,26.00
2016,08,18,13,39,26.00
2016,08,18,13,40,26.10
2016,08,18,13,41,26.10
2016,08,18,13,42,26.10
2016,08,18,13,43,26.20
2016,08,18,13,44,26.20
2016,08,18,13,45,26.20
2016,08,18,13,46,26.30
2016,08,18,13,47,26.40
2016,08,18,13,48,26.50
2016,08,18,13,49,26.50
2016,08,18,13,50,26.50
2016,08,18,13,51,26.40
2016,08,18,13,52,26.50
2016,08,18,13,53,26.50
2016,08,18,13,54,26.60
2016,08,18,13,55,26.60
2016,08,18,13,56,26.60
2016,08,18,13,57,26.70
2016,08,18,13,58,26.80
2016,08,18,13,59,26.80
2016,08,18,14,00,26.90
2016,08,18,14,01,26.90
2016,08,18,14,02,26.90
2016,08,18,14,03,26.90
2016,08,18,14,04,26.90
2016,08,18,14,05,26.90
2016,08,18,14,06,26.90
2016,08,18,14,07,27.00
2016,08,18,14,08,27.10
2016,08,18,14,09,27.10
2016,08,18,14,10,27.20
2016,08,18,14,11,27.40
2016,08,18,14,12,27.50
2016,08,18,14,13,27.60
2016,08,18,14,14,27.70
2016,08,18,14,15,27.80
2016,08,18,14,16,27.80
2016,08,18,14,17,27.80
2016,08,18,14,18,27.90
2016,08,18,14,19,27.90
2016,08,18,14,20,27.80
2016,08,18,14,21,27.80
2016,08,18,14,22,27.70
2016,08,18,14,23,27.60
2016,08,18,14,24,27.60
2016,08,18,14,25,27.60
2016,08,18,14,26,27.60
2016,08,18,14,27,27.50
2016,08,18,14,28,27.50
2016,08,18,14,29,27.50
2016,08,18,14,30,27.50
2016,08,18,14,31,27.40
2016,08,18,14,32,27.50
2016,08,18,14,33,27.50
2016,08,18,14,34,27.60
2016,08,18,14,35,27.70
2016,08,18,14,36,27.70
2016,08,18,14,37,27.60
2016,08,18,14,38,27.60
2016,08,18,14,39,27.60
2016,08,18,14,40,27.50
2016,08,18,14,41,27.60
2016,08,18,14,42,27.60
2016,08,18,14,43,27.70
2016,08,18,14,44,27.70
2016,08,18,14,45,27.70
2016,08,18,14,46,27.70
2016,08,18,14,47,27.70
2016,08,18,14,48,27.80
2016,08,18,14,49,27.80
2016,08,18,14,50,27.90
2016,08,18,14,51,27.90
2016,08,18,14,52,28.00
2016,08,18,14,53,28.00
2016,08,18,14,54,28.10
2016,08,18,14,55,28.10
2016,08,18,14,56,28.10
2016,08,18,14,57,28.10
2016,08,18,14,58,28.10
2016,08,18,14,59,28.10
2016,08,18,15,00,28.10
2016,08,18,15,01,28.10
2016,08,18,15,02,28.10
2016,08,18,15,03,28.10
2016,08,18,15,04,28.20
2016,08,18,15,05,28.30
2016,08,18,15,06,28.30
2016,08,18,15,07,28.40
2016,08,18,15,08,28.40
2016,08,18,15,09,28.40
2016,08,18,15,10,28.50
2016,08,18,15,11,28.40
2016,08,18,15,12,28.40
2016,08,18,15,13,28.40
2016,08,18,15,14,28.40
2016,08,18,15,15,28.40
2016,08,18,15,16,28.30
2016,08,18,15,17,28.30
2016,08,18,15,18,28.30
2016,08,18,15,19,28.20
2016,08,18,15,20,28.20
2016,08,18,15,21,28.20
2016,08,18,15,22,28.20
2016,08,18,15,23,28.20
2016,08,18,15,24,28.20
2016,08,18,15,25,28.20
2016,08,18,15,26,28.30
2016,08,18,15,27,28.30
2016,08,18,15,28,28.40
2016,08,18,15,29,28.40
2016,08,18,15,30,28.50
2016,08,18,15,31,28.50
2016,08,18,15,32,28.60
2016,08,18,15,33,28.70
2016,08,18,15,34,28.70
2016,08,18,15,35,28.70
2016,08,18,15,36,28.80
2016,08,18,15,37,28.80
2016,08,18,15,38,28.80
2016,08,18,15,39,28.80
2016,08,18,15,40,28.80
2016,08,18,15,41,28.80
2016,08,18,15,42,28.80
2016,08,18,15,43,28.90
2016,08,18,15,44,28.90
2016,08,18,15,45,28.90
2016,08,18,15,46,28.90
2016,08,18,15,47,28.90
2016,08,18,15,48,29.00
2016,08,18,15,49,29.00
2016,08,18,15,50,29.10
2016,08,18,15,51,29.10
2016,08,18,15,52,29.20
2016,08,18,15,53,29.20
2016,08,18,15,54,29.30
2016,08,18,15,55,29.30
2016,08,18,15,56,29.20
2016,08,18,15,57,29.10
2016,08,18,15,58,29.10
2016,08,18,15,59,29.10
2016,08,18,16,00,29.10
2016,08,18,16,01,29.10
2016,08,18,16,02,29.10
2016,08,18,16,03,29.00
2016,08,18,16,04,29.00
2016,08,18,16,05,29.00
2016,08,18,16,06,29.00
2016,08,18,16,07,29.00
2016,08,18,16,08,29.00
2016,08,18,16,09,29.00
2016,08,18,16,10,29.00
2016,08,18,16,11,29.00
2016,08,18,16,12,28.90
2016,08,18,16,13,28.90
2016,08,18,16,14,28.90
2016,08,18,16,15,28.90
2016,08,18,16,16,28.90
2016,08,18,16,17,28.90
2016,08,18,16,18,28.90
2016,08,18,16,19,28.90
2016,08,18,16,20,28.90
2016,08,18,16,21,29.00
2016,08,18,16,22,29.00
2016,08,18,16,23,29.00
2016,08,18,16,24,29.10
2016,08,18,16,25,29.10
2016,08,18,16,26,29.10
2016,08,18,16,27,29.10
2016,08,18,16,28,29.10
2016,08,18,16,29,29.10
2016,08,18,16,30,29.10
2016,08,18,16,31,29.20
2016,08,18,16,32,29.20
2016,08,18,16,33,29.20
2016,08,18,16,34,29.20
2016,08,18,16,35,29.20
2016,08,18,16,36,29.10
2016,08,18,16,37,29.10
2016,08,18,16,38,29.10
2016,08,18,16,39,29.10
2016,08,18,16,40,29.20
2016,08,18,16,41,29.20
2016,08,18,16,42,29.20
2016,08,18,16,43,29.20
2016,08,18,16,44,29.30
2016,08,18,16,45,29.30
2016,08,18,16,46,29.40
2016,08,18,16,47,29.40
2016,08,18,16,48,29.40
2016,08,18,16,49,29.50
2016,08,18,16,50,29.50
2016,08,18,16,51,29.50
2016,08,18,16,52,29.50
2016,08,18,16,53,29.50
2016,08,18,16,54,29.50
2016,08,18,16,55,29.60
2016,08,18,16,56,29.60
2016,08,18,16,57,29.60
2016,08,18,16,58,29.60
2016,08,18,16,59,29.70
2016,08,18,17,00,29.80
2016,08,18,17,01,29.80
2016,08,18,17,02,29.90
2016,08,18,17,03,29.90
2016,08,18,17,04,29.90
2016,08,18,17,05,29.90
2016,08,18,17,06,30.00
2016,08,18,17,07,30.00
2016,08,18,17,08,30.00
2016,08,18,17,09,30.00
2016,08,18,17,10,29.90
2016,08,18,17,11,29.80
2016,08,18,17,12,29.80
2016,08,18,17,13,29.80
2016,08,18,17,14,29.80
2016,08,18,17,15,29.80
2016,08,18,17,16,29.80
2016,08,18,17,17,29.80
2016,08,18,17,18,29.80
2016,08,18,17,19,29.80